Location: Czernica
(51.0462°N, 17.2458°E)
Time: 12:58:38
(UTC+01:00)

ISS - Pass Details

Date: 01 February 2019
Orbit: 403 x 411 km, 51.6° (Epoch: 23 February)

Event Time Altitude Azimuth Distance (km) Brightness Sun altitude
Rises 18:54:06 0° 280° (W) 2,339 1.5 -20.9°
Reaches altitude 10° 18:56:11 10° 280° (W) 1,478 0.1 -21.2°
Enters shadow 18:59:01 62° 278° (W) 466 -3.4 -21.7°
